Gainesville, FL

6:55 PM EST on December 09, 2019 (GMT -0500)
Gainesville Regional

Weather History for KGNV - October, 2019

Change the Weather History Date:

Tuesday, October 15, 2019

  Actual Average Record
Temperature  
Mean Temperature 78 °F 71 °F  
Max Temperature 88 °F 82 °F 93 °F (2018)
Min Temperature 70 °F 61 °F 38 °F (1977)
Degree Days  
Heating Degree Days 0 1  
Month to date heating degree days 3  
Since 1 July heating degree days 3  
Cooling Degree Days 14 7  
Month to date cooling degree days 129  
Year to date cooling degree days 2469  
Growing Degree Days 28 (Base 50)    
Moisture  
Dew Point 68 °F    
Average Humidity 74    
Maximum Humidity 93    
Minimum Humidity 49    
Precipitation  
Precipitation 0.00 in 0.09 in 2.14 in (1922)
Month to date precipitation 1.69  
Year to date precipitation 41.68  
Snow  
Snow 0.00 in 0.00 in 0.00 in ()
Month to date snowfall 0.0  
Since 1 July snowfall 0.0  
Since 1 September snowfall 0.0  
Snow Depth -    
Sea Level Pressure  
Sea Level Pressure 30.04 in    
Wind  
Wind Speed 3 mph (SSE)    
Max Wind Speed 13 mph    
Max Gust Speed -    
Visibility 10 miles    
Events      
T = Trace of Precipitation, MM = Missing Value Source: NWS Daily Summary

Daily Weather History Graph

Daily Weather History Graph

Search for Another Location

Airport or City:

Astronomy

Oct. 15, 2019 Rise Set
Actual Time 7:30 AM EDT 6:58 PM EDT
Civil Twilight 7:06 AM EDT 7:22 PM EDT
Nautical Twilight 6:38 AM EDT 7:50 PM EDT
Astronomical Twilight 6:11 AM EDT 8:18 PM EDT
Moon 8:23 PM EDT (10/15) 8:56 AM EDT (10/15)
Length of Visible Light 12h 16m
Length of Day
11h 28m
Full, 97% of the Moon is Illuminated
Oct 15
Full
Oct 21
Last Quarter
Oct 27
New
Nov 4
First Quarter
Nov 12
Full

Hourly Weather History & Observations

Time (EDT) Temp. Heat Index Dew Point Humidity Pressure Visibility Wind Dir Wind Speed Gust Speed Precip Events Conditions
12:53 AM 70.0 °F - 66.9 °F 90% 30.10 in 10.0 mi Calm Calm - N/A   Clear
1:53 AM 70.0 °F - 66.0 °F 87% 30.10 in 10.0 mi South 3.5 mph - N/A   Clear
2:53 AM 71.1 °F - 66.0 °F 84% 30.08 in 10.0 mi Calm Calm - N/A   Clear
3:53 AM 71.1 °F - 66.9 °F 87% 30.08 in 10.0 mi Calm Calm - N/A   Clear
4:53 AM 71.1 °F - 66.9 °F 87% 30.07 in 10.0 mi SSE 3.5 mph - N/A   Clear
5:53 AM 70.0 °F - 66.9 °F 90% 30.07 in 10.0 mi Calm Calm - N/A   Clear
6:53 AM 70.0 °F - 66.9 °F 90% 30.09 in 10.0 mi Calm Calm - 0.00 in   Clear
7:53 AM 70.0 °F - 68.0 °F 93% 30.09 in 10.0 mi Calm Calm - N/A   Clear
8:53 AM 73.0 °F - 68.0 °F 84% 30.09 in 10.0 mi Calm Calm - N/A   Clear
9:53 AM 75.0 °F - 70.0 °F 84% 30.10 in 10.0 mi South 4.6 mph - N/A   Clear
10:53 AM 77.0 °F - 69.1 °F 76% 30.10 in 10.0 mi South 4.6 mph - N/A   Clear
11:53 AM 82.9 °F 85.8 °F 68.0 °F 60% 30.08 in 10.0 mi SSW 5.8 mph - N/A   Clear
12:53 PM 84.9 °F 87.6 °F 66.9 °F 55% 30.06 in 10.0 mi East 4.6 mph - N/A   Clear
1:53 PM 87.1 °F 89.9 °F 66.9 °F 51% 30.04 in 10.0 mi North - - N/A   Partly Cloudy
2:53 PM 87.1 °F 89.2 °F 66.0 °F 49% 30.01 in 10.0 mi SE 12.7 mph - N/A   Clear
3:53 PM 86.0 °F 88.2 °F 66.0 °F 51% 29.98 in 10.0 mi ESE 8.1 mph - N/A   Scattered Clouds
4:53 PM 84.9 °F 87.1 °F 66.0 °F 53% 29.97 in 10.0 mi SE 8.1 mph - N/A   Clear
5:53 PM 82.9 °F 85.0 °F 66.0 °F 56% 29.97 in 10.0 mi SE 4.6 mph - N/A   Clear
6:53 PM 80.1 °F 82.3 °F 66.9 °F 64% 29.96 in 10.0 mi ESE 4.6 mph - N/A   Clear
7:53 PM 78.1 °F - 69.1 °F 74% 29.99 in 10.0 mi ESE 6.9 mph - 0.00 in   Partly Cloudy
8:53 PM 78.1 °F - 69.1 °F 74% 29.99 in 10.0 mi South 5.8 mph - N/A   Scattered Clouds
9:53 PM 75.9 °F - 70.0 °F 82% 29.96 in 10.0 mi ESE 9.2 mph - 0.00 in   Scattered Clouds
10:53 PM 75.9 °F - 70.0 °F 82% 29.99 in 10.0 mi SSE 6.9 mph - N/A   Clear
11:53 PM 75.9 °F - 69.1 °F 79% 29.98 in 10.0 mi South 8.1 mph - N/A   Mostly Cloudy